Content
SEND FEEDBACK

Daily
Averages
Monthly
Summary
United States of America

WILMINGTON, NORTH CAROLINA


Home > North America > United States > North Carolina
Elevation: 21 meters     Latitude: 34 16N     Longitude: 077 54W

WEATHER
 
SELECT A DAY
Number of Records: 208,780;   Date Range: 1/1/95 - 7/26/14
 
SHARE

PRINT THIS DATA

[ ← Previous Day ]
WEATHER ALMANAC - 27 JANUARY, 2013
[ Next Day → ]
[ °F ]   °C
Weather ElementAverageHighLow
Temperature1.3 °C8.3 °C (1:53 pm)-3 °C (3:37 am)
Dewpoint-3.4 °C-1.7 °C (9:53 am)-5 °C (11:53 am)
Humidity73.5 %93 % (3:37 am)42 % (1:53 pm)
Barometer1032.8 hPa1034.9 hPa (9:53 am)1029.8 hPa (1:53 am)
Wind Speed10.8 km/h20.4 km/h (9:53 am)
Wind Gust33.3 km/h (10:53 am)
Weather ElementAverage
Visibility12.7 km
Wind DirectionENE (55 °)

Weather ElementTotal
Precipitation---
Heating Degree Days15.7 (Base 18.3)
Averaged from 26 records on 27 January, 2013
WEATHER CONDITIONS BREAKOUT
WIND DIRECTION BREAKOUT
WEATHER BY HOUR - 27 JANUARY, 2013
[ °F ]   °C
Local TimeTemperatureDewpointHumidityBarometerVisibilityWind DirectionWind SpeedGust SpeedPrecipitationEventsConditions
1:53 AM-2.2 °C-3.3 °C92 %1029.8 hPa8 kmNorth (360°)7.4 km/hClear
2:53 AM-2.2 °C-3.3 °C92 %1030.1 hPa6.4 kmNNE (20°)9.3 km/hClear
3:37 AM-3 °C-4 °C93 %1030.8 hPa8 kmNNE (30°)14.8 km/hScattered Clouds
3:53 AM-2.8 °C-3.9 °C92 %1030.8 hPa6.4 kmNNE (30°)11.1 km/hMostly Cloudy
4:53 AM-2.2 °C-3.3 °C92 %1031.2 hPa8 kmNE (40°)14.8 km/hMostly Cloudy
5:03 AM-2 °C-3 °C93 %1031.2 hPa8 kmNNE (30°)9.3 km/hMostly Cloudy
5:21 AM-2 °C-4 °C86 %1031.2 hPa9.7 kmNNE (20°)7.4 km/hScattered Clouds
5:53 AM-2.8 °C-3.9 °C92 %1031.2 hPa9.7 kmNNE (20°)7.4 km/hClear
6:53 AM-2.8 °C-4.4 °C89 %1032.2 hPa9.7 kmNNE (20°)11.1 km/hClear
7:53 AM-2.2 °C-3.9 °C88 %1033.2 hPa8 kmNNE (20°)14.8 km/hPartly Cloudy
8:53 AM-0.6 °C-2.8 °C85 %1034.2 hPa9.7 kmNNE (20°)16.7 km/hClear
9:53 AM2.2 °C-1.7 °C76 %1034.9 hPa14.5 kmNE (40°)20.4 km/hClear
10:53 AM5 °C-2.8 °C57 %1034.9 hPa16.1 kmNE (40°)20.4 km/h33.3 km/hClear
11:53 AM6.7 °C-5 °C43 %1034.5 hPa16.1 kmENE (60°)20.4 km/hClear
12:53 PM7.2 °C-4.4 °C44 %1033.9 hPa16.1 kmNorth (10°)14.8 km/hClear
1:53 PM8.3 °C-3.9 °C42 %1033.2 hPa16.1 kmVariable5.6 km/hClear
2:53 PM7.2 °C-3.9 °C46 %1033.2 hPa16.1 kmESE (120°)7.4 km/hClear
3:53 PM6.7 °C-3.3 °C49 %1033.5 hPa16.1 kmSE (130°)13 km/hClear
4:53 PM6.1 °C-2.8 °C53 %1033.9 hPa16.1 kmESE (110°)13 km/hClear
5:53 PM5 °C-2.8 °C57 %1033.9 hPa16.1 kmEast (100°)7.4 km/hClear
6:53 PM2.8 °C-2.2 °C70 %1034.5 hPa16.1 kmCalmClear
7:53 PM1.1 °C-2.8 °C75 %1034.2 hPa16.1 kmENE (60°)5.6 km/hClear
8:53 PM0.6 °C-3.3 °C75 %1033.9 hPa16.1 kmNNE (30°)5.6 km/hClear
9:53 PM0 °C-3.3 °C79 %1033.9 hPa16.1 kmNE (40°)11.1 km/hClear
10:53 PM0.6 °C-3.3 °C75 %1033.2 hPa16.1 kmNE (50°)7.4 km/hClear
11:53 PM0 °C-3.9 °C75 %1033.5 hPa16.1 kmNNE (30°)5.6 km/hClear
Hourly data recorded from KILM, located 0 kilometers away from Wilmington, North Carolina







STORIES FROM OUR PARTNERS